Location: Elstree
(51.6403°N, 0.2969°W)
Time: 07:31:39
(UTC+00:00)

SPOT 1/Viking Rocket - Visible Passes

Search period start: 21 June 2021 00:00
Search period end: 01 July 2021 00:00
Orbit: 776 x 794 km, 98.4° (Epoch: 20 June)

Date Brightness Start Highest point End Pass type
(mag) Time Alt. Az. Time Alt. Az. Time Alt. Az.
21 Jun 5.1 21:52:17 10° SSW 21:56:47 31° W 22:01:21 10° NNW visible
22 Jun 4.2 21:20:43 10° S 21:25:44 53° W 21:30:48 10° NNW visible
23 Jun 5.9 22:31:55 10° WSW 22:34:58 16° W 22:38:02 10° NW visible
24 Jun 5.2 21:59:24 10° SSW 22:03:44 27° W 22:08:07 10° NW visible
25 Jun 4.4 21:27:42 10° S 21:32:39 47° W 21:37:38 10° NNW visible
26 Jun 6.0 22:39:23 10° WSW 22:41:57 14° W 22:44:32 10° NW visible
27 Jun 5.4 22:06:34 10° SW 22:10:41 24° W 22:14:50 10° NW visible
28 Jun 4.6 21:34:43 10° SSW 21:39:34 41° W 21:44:27 10° NNW visible
29 Jun 3.8 21:03:27 10° S 21:08:34 72° WSW 21:13:46 10° NNW visible
29 Jun 6.0 22:47:02 10° WSW 22:48:56 12° W 22:50:51 10° WNW visible
30 Jun 5.6 22:13:46 10° SW 22:17:39 21° W 22:21:33 10° NW visible
